Location: Croisilles
(50.1998°N, 2.8793°E)
Time: 21:09:34
(UTC+00:00)

CREW DRAGON DEMO-1 DEB - Pass Details

Date: 21 January 2021
Orbit: 334 x 338 km, 51.6° (Epoch: 01 March)

Event Time Altitude Azimuth Distance (km) Brightness Sun altitude
Rises 17:52:07 0° 286° (WNW) 2,174 7.8 -13.8°
Reaches altitude 10° 17:54:09 10° 284° (WNW) 1,324 6.6 -14.1°
Maximum altitude 17:57:06 76° 200° (SSW) 365 2.7 -14.6°
Enters shadow 17:58:22 30° 118° (ESE) 653 3.6 -14.8°
